W0DXV Weather Reports


Display with metric or nautical units.
time (UTC)temp
F
wind
direction
speed
MPH
gust
MPH
rain 1hr
in
rain 24hr
in
rain mn
in
humidity
%
barometer
mb
20260905111157 70 178 0.0 0.0 0.00 0.00 0.00 99 1009.5
20260905110656 70 178 0.0 0.0 0.00 0.00 0.00 99 1009.5
20260905110152 71 178 0.0 0.0 0.00 0.00 0.00 99 1009.5
20260905105647 71 178 0.0 0.0 0.00 0.00 0.00 99 1009.2
20260905105146 71 178 0.0 0.0 0.00 0.00 0.00 99 1009.3
20260905104641 71 178 0.0 0.0 0.00 0.00 0.00 99 1009.4
20260905104137 71 178 0.0 0.0 0.00 0.00 0.00 99 1009.4
20260905103632 71 178 0.0 0.0 0.00 0.00 0.00 99 1009.3
20260905103128 71 178 1.0 1.0 0.00 0.00 0.00 99 1009.1
20260905102623 71 178 0.0 0.0 0.00 0.00 0.00 99 1009.3
20260905102120 71 178 0.0 0.0 0.00 0.00 0.00 99 1009.4
20260905101618 71 177 0.0 0.0 0.00 0.00 0.00 99 1009.1
20260905101116 71 177 0.0 0.0 0.00 0.00 0.00 99 1009.1
20260905100613 71 177 0.0 0.0 0.00 0.00 0.00 99 1009.0
20260905100108 71 177 0.0 0.0 0.00 0.00 0.00 99 1008.8
20260905095601 71 177 0.0 0.0 0.00 0.00 0.00 99 1009.0
20260905095057 71 177 0.0 0.0 0.00 0.00 0.00 99 1009.1
20260905094551 72 177 0.0 0.0 0.00 0.00 0.00 99 1008.8
20260905094050 72 177 0.0 0.0 0.00 0.00 0.00 99 1008.8
20260905093545 72 177 0.0 0.0 0.00 0.00 0.00 99 1008.9
20260905093042 72 177 0.0 0.0 0.00 0.00 0.00 99 1008.9
20260905092541 72 177 0.0 0.0 0.00 0.00 0.00 99 1008.8
20260905092037 72 185 0.0 0.0 0.00 0.00 0.00 99 1008.4
20260905091531 71 185 0.0 0.0 0.00 0.00 0.00 99 1008.7
20260905091031 71 185 0.0 0.0 0.00 0.00 0.00 99 1009.1
20260905090525 71 185 0.0 0.0 0.00 0.00 0.00 99 1008.9
20260905090020 71 185 0.0 0.0 0.00 0.00 0.00 99 1009.0
20260905085518 71 185 0.0 0.0 0.00 0.00 0.00 99 1008.8
20260905085014 72 185 0.0 0.0 0.00 0.00 0.00 99 1008.9
20260905084508 72 185 0.0 0.0 0.00 0.00 0.00 99 1009.0
20260905084003 72 185 0.0 1.0 0.00 0.00 0.00 99 1009.1
20260905083458 72 185 0.0 0.0 0.00 0.00 0.00 99 1009.2
20260905082954 72 185 0.0 0.0 0.00 0.00 0.00 99 1009.1
20260905082450 72 185 0.0 0.0 0.00 0.00 0.00 99 1009.1
20260905081945 72 185 0.0 0.0 0.00 0.00 0.00 99 1009.0
20260905081440 72 185 0.0 0.0 0.00 0.00 0.00 99 1009.1
20260905080939 72 185 0.0 1.0 0.00 0.00 0.00 99 1009.3
20260905080434 72 185 0.0 0.0 0.00 0.00 0.00 98 1009.4
20260905075933 72 185 0.0 0.0 0.00 0.00 0.00 98 1009.6
20260905075428 72 186 0.0 0.0 0.00 0.00 0.00 98 1009.6
20260905074927 72 186 1.0 1.0 0.00 0.00 0.00 98 1009.4
20260905074422 73 186 0.0 0.0 0.00 0.00 0.00 98 1009.5
20260905073918 73 186 0.0 0.0 0.00 0.00 0.00 98 1009.6
20260905073413 73 186 0.0 0.0 0.00 0.00 0.00 98 1009.7
20260905072908 73 186 0.0 0.0 0.00 0.00 0.00 98 1009.8
20260905072403 73 186 0.0 0.0 0.00 0.00 0.00 98 1009.7
20260905071859 73 186 0.0 0.0 0.00 0.00 0.00 98 1009.8
20260905071355 73 186 0.0 0.0 0.00 0.00 0.00 98 1009.9
20260905070855 73 186 0.0 0.0 0.00 0.00 0.00 98 1009.8
20260905070351 73 186 0.0 0.0 0.00 0.00 0.00 97 1010.1
20260905065851 73 185 0.0 0.0 0.00 0.00 0.00 97 1010.0
20260905065349 74 185 0.0 0.0 0.00 0.00 0.00 97 1010.1
20260905064844 74 185 0.0 1.0 0.00 0.00 0.00 97 1010.1
20260905064340 73 185 1.0 1.0 0.00 0.00 0.00 97 1010.3
20260905063838 74 199 0.0 0.0 0.00 0.00 0.00 97 1010.6
20260905063334 74 200 0.0 0.0 0.00 0.00 0.00 97 1010.1
20260905062830 74 200 0.0 0.0 0.00 0.00 0.00 97 1010.4
20260905062325 74 199 0.0 0.0 0.00 0.00 0.00 98 1010.6
20260905061820 74 198 1.0 1.0 0.00 0.00 0.00 98 1010.8
20260905061320 74 139 1.0 1.0 0.00 0.00 0.00 98 1010.6
20260905060814 74 224 1.0 1.0 0.00 0.00 0.00 98 1010.9
20260905060311 74 225 2.0 2.0 0.00 0.00 0.00 98 1010.6
20260905055810 74 208 0.0 0.0 0.00 0.00 0.00 98 1010.9
20260905055306 74 208 0.0 0.0 0.00 0.00 0.00 98 1010.7
20260905054759 74 208 0.0 0.0 0.00 0.00 0.00 98 1010.6
20260905054256 74 208 0.0 0.0 0.00 0.00 0.00 98 1010.7
20260905053755 74 208 0.0 0.0 0.00 0.00 0.00 98 1010.7
20260905053250 74 208 0.0 0.0 0.00 0.00 0.00 98 1010.7
20260905052750 74 207 0.0 0.0 0.00 0.00 0.00 98 1010.8
20260905052245 74 212 0.0 0.0 0.00 0.00 0.00 97 1010.8
20260905051744 74 212 0.0 0.0 0.00 0.00 0.00 97 1010.9
20260905051241 74 212 0.0 0.0 0.00 0.00 0.00 97 1010.7
20260905050738 74 212 0.0 0.0 0.00 0.00 0.00 97 1010.9
20260905050234 74 212 0.0 0.0 0.00 0.00 0.00 97 1011.0
20260905045733 74 212 0.0 0.0 0.00 0.00 0.00 97 1010.9
20260905045229 74 212 0.0 0.0 0.00 0.00 0.00 97 1011.1
20260905044724 74 212 0.0 0.0 0.00 0.00 0.00 97 1011.4
20260905044219 75 212 0.0 0.0 0.00 0.00 0.00 97 1011.5
20260905043718 75 212 0.0 0.0 0.00 0.00 0.00 97 1011.2
20260905043212 75 212 0.0 0.0 0.00 0.00 0.00 96 1011.3
20260905042707 75 212 0.0 0.0 0.00 0.00 0.00 96 1011.2
20260905042206 75 212 1.0 1.0 0.00 0.00 0.00 96 1011.2
20260905041702 75 211 0.0 0.0 0.00 0.00 0.00 96 1011.2
20260905041157 75 210 1.0 1.0 0.00 0.00 0.00 96 1011.2
20260905040652 75 229 0.0 0.0 0.00 0.00 0.00 96 1011.2
20260905040151 75 229 0.0 0.0 0.00 0.00 0.00 96 1011.0
20260905035651 75 229 0.0 0.0 0.00 0.00 0.00 96 1010.9
20260905035148 75 229 0.0 0.0 0.00 0.00 0.00 96 1011.1
20260905034643 75 229 0.0 0.0 0.00 0.00 0.00 96 1010.7
20260905034143 75 229 0.0 0.0 0.00 0.00 0.00 96 1010.9
20260905033642 75 229 0.0 0.0 0.00 0.00 0.00 96 1010.9
20260905033138 76 229 1.0 1.0 0.00 0.00 0.00 95 1010.8
20260905032638 76 228 0.0 0.0 0.00 0.00 0.00 95 1010.7
20260905032132 76 228 0.0 1.0 0.00 0.00 0.00 95 1010.8
20260905031628 76 239 0.0 1.0 0.00 0.00 0.00 95 1010.7
20260905031124 76 239 0.0 0.0 0.00 0.00 0.00 95 1010.6
20260905030618 76 253 0.0 0.0 0.00 0.00 0.00 95 1010.7
20260905030114 76 253 0.0 0.0 0.00 0.00 0.00 95 1010.6
20260905025608 76 253 0.0 0.0 0.00 0.00 0.00 95 1010.7
20260905025104 76 253 0.0 0.0 0.00 0.00 0.00 95 1010.7
20260905024600 76 253 0.0 0.0 0.00 0.00 0.00 94 1010.7
20260905024055 76 253 0.0 0.0 0.00 0.00 0.00 94 1010.6
20260905023550 77 253 0.0 0.0 0.00 0.00 0.00 94 1010.7
20260905023044 77 253 0.0 0.0 0.00 0.00 0.00 93 1010.5
20260905022544 77 253 0.0 0.0 0.00 0.00 0.00 93 1010.6
20260905022039 77 250 0.0 0.0 0.00 0.00 0.00 93 1010.8
20260905021539 77 214 0.0 0.0 0.00 0.00 0.00 93 1010.9
20260905021034 77 219 0.0 0.0 0.00 0.00 0.00 93 1010.9
20260905020533 77 219 0.0 0.0 0.00 0.00 0.00 93 1010.7
20260905020029 77 219 0.0 0.0 0.00 0.00 0.00 92 1010.6
20260905015526 77 219 0.0 1.0 0.00 0.00 0.00 93 1010.7
20260905015022 77 220 0.0 0.0 0.00 0.00 0.00 92 1010.3
20260905014516 78 220 0.0 0.0 0.00 0.00 0.00 92 1010.5
20260905014012 78 220 0.0 0.0 0.00 0.00 0.00 92 1010.2
20260905013508 78 220 0.0 0.0 0.00 0.00 0.00 91 1010.4
20260905013004 78 219 0.0 0.0 0.00 0.00 0.00 91 1010.4
20260905012458 79 219 1.0 1.0 0.00 0.00 0.00 90 1010.2
20260905011955 79 259 0.0 0.0 0.00 0.00 0.00 89 1010.3
20260905011450 79 231 0.0 0.0 0.00 0.00 0.00 89 1010.4
20260905010946 79 211 0.0 0.0 0.00 0.00 0.00 89 1010.5
20260905010441 79 211 1.0 1.0 0.00 0.00 0.00 88 1010.6
20260905005937 80 210 0.0 1.0 0.00 0.00 0.00 88 1010.5
20260905005433 80 210 0.0 0.0 0.00 0.00 0.00 88 1010.5
20260905004933 80 210 0.0 1.0 0.00 0.00 0.00 87 1010.6
20260905004428 81 206 0.0 0.0 0.00 0.00 0.00 85 1010.5
20260905003922 81 125 1.0 2.0 0.00 0.00 0.00 85 1010.4
20260905003419 81 252 0.0 1.0 0.00 0.00 0.00 84 1010.7
20260905002914 81 269 0.0 1.0 0.00 0.00 0.00 84 1010.7
20260905002413 81 251 0.0 0.0 0.00 0.00 0.00 84 1010.6
20260905001908 82 251 0.0 0.0 0.00 0.00 0.00 84 1010.8
20260905001403 83 252 0.0 0.0 0.00 0.00 0.00 82 1010.8
20260905000858 83 253 0.0 0.0 0.00 0.00 0.00 79 1010.7
20260905000355 84 253 0.0 0.0 0.00 0.00 0.00 78 1010.8
20260904235849 84 277 0.0 0.0 0.00 0.00 0.00 77 1010.4
20260904235344 85 222 0.0 0.0 0.00 0.00 0.00 79 1010.5
20260904234844 85 228 0.0 0.0 0.00 0.00 0.00 73 1010.7
20260904234339 85 234 0.0 0.0 0.00 0.00 0.00 72 1010.8
20260904233834 86 244 0.0 0.0 0.00 0.00 0.00 72 1010.6
20260904233330 86 266 1.0 1.0 0.00 0.00 0.00 73 1010.5
20260904232827 86 254 0.0 0.0 0.00 0.00 0.00 74 1010.5
20260904232323 86 251 0.0 1.0 0.00 0.00 0.00 76 1010.4
20260904231819 87 221 0.0 1.0 0.00 0.00 0.00 75 1010.1
20260904231313 88 221 0.0 0.0 0.00 0.00 0.00 72 1010.0
20260904230809 88 222 0.0 0.0 0.00 0.00 0.00 70 1010.0
20260904230307 89 226 1.0 1.0 0.00 0.00 0.00 67 1010.0
20260904225802 89 244 0.0 0.0 0.00 0.00 0.00 66 1010.1
20260904225255 89 217 0.0 0.0 0.00 0.00 0.00 67 1010.2
20260904224754 89 252 1.0 1.0 0.00 0.00 0.00 66 1010.1
20260904224250 90 220 0.0 1.0 0.00 0.00 0.00 69 1010.3
20260904223749 90 234 1.0 2.0 0.00 0.00 0.00 65 1009.9
20260904223244 90 233 1.0 1.0 0.00 0.00 0.00 67 1010.0
20260904222741 89 258 1.0 2.0 0.00 0.00 0.00 72 1010.1
20260904222235 89 203 0.0 0.0 0.00 0.00 0.00 74 1010.1
20260904221735 89 203 0.0 0.0 0.00 0.00 0.00 69 1009.9
20260904221230 89 203 0.0 0.0 0.00 0.00 0.00 68 1010.0
20260904220725 90 203 0.0 0.0 0.00 0.00 0.00 68 1009.8
20260904220220 90 203 0.0 0.0 0.00 0.00 0.00 67 1010.1
20260904215720 90 203 0.0 0.0 0.00 0.00 0.00 66 1010.0
20260904215215 91 204 0.0 1.0 0.00 0.00 0.00 66 1009.9
20260904214710 92 205 1.0 2.0 0.00 0.00 0.00 63 1010.0
20260904214206 92 235 1.0 1.0 0.00 0.00 0.00 62 1009.9
20260904213704 93 237 0.0 0.0 0.00 0.00 0.00 60 1010.1
20260904213200 93 185 1.0 1.0 0.00 0.00 0.00 59 1009.9
20260904212655 93 234 0.0 1.0 0.00 0.00 0.00 59 1010.0
20260904212150 94 217 0.0 0.0 0.00 0.00 0.00 60 1010.1
20260904211644 94 194 1.0 1.0 0.00 0.00 0.00 58 1009.9
20260904211140 94 231 0.0 0.0 0.00 0.00 0.00 57 1010.0
20260904210639 95 243 1.0 1.0 0.00 0.00 0.00 61 1009.8
20260904210135 95 211 1.0 1.0 0.00 0.00 0.00 56 1009.9
20260904205631 95 244 2.0 2.0 0.00 0.00 0.00 57 1009.7
20260904205127 96 242 0.0 1.0 0.00 0.00 0.00 56 1009.9
20260904204623 98 106 1.0 2.0 0.00 0.00 0.00 54 1009.8
20260904204119 97 244 1.0 1.0 0.00 0.00 0.00 50 1009.8
20260904203614 97 250 0.0 1.0 0.00 0.00 0.00 55 1009.8
20260904203111 98 215 1.0 1.0 0.00 0.00 0.00 52 1009.9
20260904202607 98 200 1.0 1.0 0.00 0.00 0.00 54 1009.8
20260904202102 98 111 1.0 1.0 0.00 0.00 0.00 49 1009.9
20260904201556 99 217 1.0 1.0 0.00 0.00 0.00 49 1010.0
20260904201052 99 231 0.0 0.0 0.00 0.00 0.00 49 1009.9
20260904200550 100 199 1.0 1.0 0.00 0.00 0.00 46 1009.8
20260904200046 100 260 2.0 3.0 0.00 0.00 0.00 45 1010.1
20260904195544 100 148 1.0 1.0 0.00 0.00 0.00 43 1010.2
20260904195038 101 133 1.0 1.0 0.00 0.00 0.00 44 1010.1
20260904194533 100 247 1.0 1.0 0.00 0.00 0.00 41 1010.1
20260904194028 99 232 0.0 0.0 0.00 0.00 0.00 46 1010.5
20260904193522 99 153 1.0 1.0 0.00 0.00 0.00 49 1010.6
20260904193019 98 241 0.0 0.0 0.00 0.00 0.00 46 1011.0
20260904192518 99 219 2.0 2.0 0.00 0.00 0.00 47 1011.1
20260904192015 100 282 1.0 2.0 0.00 0.00 0.00 46 1011.0
20260904191511 99 221 1.0 1.0 0.00 0.00 0.00 52 1011.0
20260904191007 98 197 1.0 1.0 0.00 0.00 0.00 52 1011.0
20260904190503 98 202 1.0 1.0 0.00 0.00 0.00 51 1011.2
20260904185958 98 159 1.0 2.0 0.00 0.00 0.00 50 1011.4
20260904185454 99 198 1.0 1.0 0.00 0.00 0.00 49 1011.3
20260904184949 100 263 1.0 1.0 0.00 0.00 0.00 49 1011.6
20260904184443 99 229 1.0 1.0 0.00 0.00 0.00 48 1011.5
20260904183938 98 84 1.0 1.0 0.00 0.00 0.00 49 1011.6
20260904183433 98 234 1.0 1.0 0.00 0.00 0.00 53 1011.6
20260904182929 99 211 1.0 1.0 0.00 0.00 0.00 50 1011.9
20260904182424 99 223 0.0 0.0 0.00 0.00 0.00 49 1011.9
20260904181919 98 232 1.0 1.0 0.00 0.00 0.00 50 1011.7
20260904181414 99 222 1.0 1.0 0.00 0.00 0.00 49 1012.0
20260904180909 98 219 0.0 1.0 0.00 0.00 0.00 51 1012.0
20260904180404 98 256 1.0 1.0 0.00 0.00 0.00 48 1012.0
20260904175903 98 221 1.0 1.0 0.00 0.00 0.00 51 1012.2
20260904175403 98 173 1.0 1.0 0.00 0.00 0.00 53 1012.2
20260904174857 97 243 1.0 1.0 0.00 0.00 0.00 50 1012.1
20260904174353 97 177 1.0 1.0 0.00 0.00 0.00 55 1012.2
20260904173849 97 149 1.0 1.0 0.00 0.00 0.00 52 1012.2
20260904173344 96 222 1.0 1.0 0.00 0.00 0.00 53 1012.4
20260904172840 97 247 2.0 2.0 0.00 0.00 0.00 51 1012.4
20260904172339 97 263 1.0 1.0 0.00 0.00 0.00 53 1012.5
20260904171839 97 223 1.0 1.0 0.00 0.00 0.00 55 1012.5
20260904171334 95 281 0.0 1.0 0.00 0.00 0.00 62 1012.4
20260904170831 96 21 1.0 1.0 0.00 0.00 0.00 58 1012.6
20260904170326 95 201 1.0 1.0 0.00 0.00 0.00 58 1012.4
20260904165821 94 244 1.0 1.0 0.00 0.00 0.00 57 1012.6
20260904165320 96 223 1.0 1.0 0.00 0.00 0.00 57 1012.7
20260904164815 95 186 1.0 1.0 0.00 0.00 0.00 61 1012.9
20260904164315 95 231 1.0 1.0 0.00 0.00 0.00 60 1013.1
20260904163811 95 262 0.0 1.0 0.00 0.00 0.00 61 1013.0
20260904163306 94 271 1.0 1.0 0.00 0.00 0.00 61 1013.2
20260904162805 93 236 1.0 2.0 0.00 0.00 0.00 62 1013.2
20260904162301 93 130 1.0 2.0 0.00 0.00 0.00 65 1013.3
20260904161755 94 231 1.0 1.0 0.00 0.00 0.00 63 1013.3
20260904161250 93 229 1.0 1.0 0.00 0.00 0.00 63 1013.3
20260904160746 93 54 1.0 1.0 0.00 0.00 0.00 66 1013.3
20260904160241 92 93 2.0 2.0 0.00 0.00 0.00 65 1013.4
20260904155741 93 261 2.0 2.0 0.00 0.00 0.00 63 1013.4
20260904155235 93 234 0.0 1.0 0.00 0.00 0.00 63 1013.4
20260904154733 93 254 1.0 1.0 0.00 0.00 0.00 65 1013.4
20260904154228 92 215 0.0 1.0 0.00 0.00 0.00 67 1013.6
20260904153724 91 248 1.0 1.0 0.00 0.00 0.00 67 1013.7
20260904153219 92 230 0.0 1.0 0.00 0.00 0.00 67 1013.7
20260904152715 91 230 0.0 1.0 0.00 0.00 0.00 68 1013.6
20260904152210 90 234 1.0 1.0 0.00 0.00 0.00 71 1013.7
20260904151705 91 255 1.0 1.0 0.00 0.00 0.00 69 1013.6
20260904151204 91 221 1.0 1.0 0.00 0.00 0.00 69 1013.7
20260904150700 91 232 1.0 1.0 0.00 0.00 0.00 68 1013.6
20260904150155 89 242 0.0 1.0 0.00 0.00 0.00 71 1013.4
20260904145654 89 254 1.0 1.0 0.00 0.00 0.00 71 1013.6
20260904145149 88 205 1.0 1.0 0.00 0.00 0.00 73 1013.8
20260904144644 88 155 1.0 1.0 0.00 0.00 0.00 72 1013.8
20260904144140 87 96 2.0 2.0 0.00 0.00 0.00 75 1013.9
20260904143636 87 252 0.0 1.0 0.00 0.00 0.00 73 1014.0
20260904143132 87 204 0.0 1.0 0.00 0.00 0.00 76 1014.0
20260904142629 87 198 1.0 1.0 0.00 0.00 0.00 77 1014.0
20260904142124 87 244 0.0 1.0 0.00 0.00 0.00 75 1014.1
20260904141618 86 234 0.0 0.0 0.00 0.00 0.00 78 1013.9
20260904141108 85 227 0.0 0.0 0.00 0.00 0.00 78 1013.9
20260904140603 84 262 1.0 1.0 0.00 0.00 0.00 78 1013.8
20260904140058 84 200 1.0 1.0 0.00 0.00 0.00 80 1013.7
20260904135557 82 222 0.0 0.0 0.00 0.00 0.00 83 1013.8
20260904135053 82 206 0.0 1.0 0.00 0.00 0.00 83 1013.8
20260904134548 82 224 0.0 0.0 0.00 0.00 0.00 83 1013.7
20260904134043 82 255 0.0 0.0 0.00 0.00 0.00 84 1013.7
20260904133543 81 252 1.0 1.0 0.00 0.00 0.00 84 1013.7
20260904133034 81 211 0.0 1.0 0.00 0.00 0.00 85 1013.6
20260904132533 81 258 0.0 1.0 0.00 0.00 0.00 84 1013.8
20260904132028 81 215 1.0 1.0 0.00 0.00 0.00 84 1013.6
20260904131528 81 208 0.0 0.0 0.00 0.00 0.00 85 1013.8
20260904131023 81 219 0.0 0.0 0.00 0.00 0.00 86 1013.8
20260904130523 81 217 2.0 2.0 0.00 0.00 0.00 85 1013.7
20260904130018 80 212 0.0 0.0 0.00 0.00 0.00 87 1013.7
20260904125514 80 212 0.0 0.0 0.00 0.00 0.00 87 1013.6
20260904125009 80 212 0.0 0.0 0.00 0.00 0.00 86 1013.6
20260904124504 80 212 0.0 0.0 0.00 0.00 0.00 87 1013.7
20260904124000 78 218 0.0 0.0 0.00 0.00 0.00 90 1013.7
20260904123454 80 208 1.0 1.0 0.00 0.00 0.00 87 1013.4
20260904122950 80 208 0.0 0.0 0.00 0.00 0.00 85 1013.7
20260904122449 82 208 0.0 0.0 0.00 0.00 0.00 81 1013.7
20260904121944 80 208 0.0 0.0 0.00 0.00 0.00 85 1013.4
20260904121440 77 208 0.0 0.0 0.00 0.00 0.00 92 1013.6
20260904120937 76 208 0.0 0.0 0.00 0.00 0.00 94 1013.6
20260904120432 75 208 0.0 0.0 0.00 0.00 0.00 97 1013.4
20260904115926 73 208 0.0 0.0 0.00 0.00 0.00 98 1013.6
20260904115422 73 208 0.0 0.0 0.00 0.00 0.00 99 1013.4
20260904114916 72 208 0.0 1.0 0.00 0.00 0.00 99 1013.4
20260904114411 72 208 0.0 0.0 0.00 0.00 0.00 99 1013.4
20260904113907 72 208 0.0 0.0 0.00 0.00 0.00 99 1013.2
20260904113406 71 207 0.0 0.0 0.00 0.00 0.00 99 1013.3
20260904112905 71 207 0.0 0.0 0.00 0.00 0.00 99 1013.3
20260904112401 71 207 0.0 0.0 0.00 0.00 0.00 99 1013.3
20260904111902 71 207 0.0 0.0 0.00 0.00 0.00 99 1013.2
20260904111357 71 207 0.0 0.0 0.00 0.00 0.00 99 1013.2